This is the latest recevied weather packets stored in our database for station/object WK7G. If no packets are shown the sender has not sent any weather packets the latest 10 day(s).
| Time | Temp. | Humidity | Pressure | Rain* | Wind** | Luminosity | Snow |
|---|---|---|---|---|---|---|---|
| 1777546362 | -3.33° C | 90% | 1015.2 hPa | 0 mm | - | 0 W/m² | - |
| 1777546060 | -3.33° C | 90% | 1015.1 hPa | 0 mm | - | 0 W/m² | - |
| 1777545755 | -2.78° C | 90% | 1014.9 hPa | 0 mm | - | 0 W/m² | - |
| 1777545453 | -3.33° C | 90% | 1014.9 hPa | 0 mm | - | 0 W/m² | - |
| 1777545150 | -3.33° C | 90% | 1014.8 hPa | 0 mm | - | 0 W/m² | - |
| 1777544847 | -3.33° C | 90% | 1015.2 hPa | 0 mm | - | 0 W/m² | - |
| 1777544543 | -3.33° C | 90% | 1015.1 hPa | 0 mm | - | 0 W/m² | - |
| 1777544240 | -3.89° C | 90% | 1014.8 hPa | 0 mm | - | 0 W/m² | - |
| 1777543937 | -3.33° C | 90% | 1014.7 hPa | 0 mm | - | 0 W/m² | - |
| 1777543634 | -3.33° C | 90% | 1014.9 hPa | 0 mm | - | 0 W/m² | - |
| 1777543329 | -3.33° C | 90% | 1014.8 hPa | 0 mm | - | 0 W/m² | - |
| 1777543025 | -3.89° C | 90% | 1015.2 hPa | 0 mm | - | 0 W/m² | - |
| 1777542721 | -3.33° C | 90% | 1014.7 hPa | 0 mm | - | 0 W/m² | - |
| 1777542418 | -3.33° C | 90% | 1014.8 hPa | 0 mm | - | 0 W/m² | - |
| 1777542114 | -2.78° C | 90% | 1014.7 hPa | 0 mm | - | 0 W/m² | - |
| 1777541812 | -2.78° C | 90% | 1014.7 hPa | 0 mm | - | 0 W/m² | - |
| 1777541509 | -3.33° C | 90% | 1014.8 hPa | 0 mm | - | 0 W/m² | - |
| 1777541205 | -3.33° C | 90% | 1014.8 hPa | 0 mm | - | 0 W/m² | - |
| 1777540901 | -3.89° C | 90% | 1014.9 hPa | 0 mm | - | 0 W/m² | - |
| 1777540599 | -3.89° C | 89% | 1014.9 hPa | 0 mm | - | 0 W/m² | - |
| 1777540296 | -2.78° C | 89% | 1014.8 hPa | 0 mm | - | 0 W/m² | - |
| 1777539992 | -2.22° C | 90% | 1014.9 hPa | 0 mm | - | 0 W/m² | - |
| 1777539688 | -2.22° C | 89% | 1015.2 hPa | 0 mm | - | 0 W/m² | - |
| 1777539384 | -2.78° C | 89% | 1015.2 hPa | 0 mm | - | 0 W/m² | - |
| 1777539080 | -2.78° C | 89% | 1015.2 hPa | 0 mm | - | 0 W/m² | - |
* Rain latest hour (hover to see other rain measurements)
** Current wind speed in m/s (hover to see current wind gust speed)